STARLINK-5785 (56031 NORAD) Tracking and Keplerian Element Data

This shows tracking and keplerian element data for the satellite.

Feedback or suggestion? Click here.




ElementValue
Catalog56031
NameSTARLINK-5785
Epoch Orbit721
Epoch Day127.25001157
Epoch Year2023
RAAN291.7027
Inclination42.9994
Eccentricity0.0001428
Argument of Perigee263.9279
Mean Anonmoly287.0523
Mean Motion15.54482632
Decay Rate-0.00886354
L11 56031U 23042AX 23127.25001157 -.00886354 00000+0 -14415-1 0 9993
L22 56031 42.9994 291.7027 0001428 263.9279 287.0523 15.54482632 7212



Live tracking and technical data element details for STARLINK-5785 (NORAD 56031). STARLINK-5785 can be tracked NOW for your location showing map with azimuth and elevation plus other details from your city location.







IsCatalogInMostPopularTable: catalog: 56031, numindb: -1

Insert: records affected: 1


GetName: 56031 STARLINK-5785

Hit Count: inserted at: Sun, 04 Jun 2023 23:48:42 GMT